Weather History for PABE - January, 2013

Change the Weather History Date:

Tuesday, January 15, 2013

  Actual Average Record
Temperature  
Mean Temperature 19 °F -  
Max Temperature 25 °F 12 °F 47 °F (1937)
Min Temperature 12 °F - -46 °F (1934)
Degree Days  
Heating Degree Days 46 59  
Month to date heating degree days 601 880  
Since 1 July heating degree days 6554 6304  
Cooling Degree Days 0    
Month to date cooling degree days 0  
Year to date cooling degree days 0  
Moisture  
Dew Point 10 °F    
Average Humidity 0    
Maximum Humidity 0    
Minimum Humidity 0    
Precipitation  
Precipitation T in 0.03 in 0.65 in (1952)
Month to date precipitation 1.04 0.42  
Year to date precipitation 1.04 0.42  
Snow  
Snow T in 0.40 in 3.00 in (1949)
Month to date snowfall 10.5 5.1  
Since 1 July snowfall 23.2 34.4  
Snow Depth 8.00 in    
Sea Level Pressure  
Sea Level Pressure 30.17 in    
Wind  
Wind Speed 8 mph (WSW)    
Max Wind Speed 21 mph    
Max Gust Speed 24 mph    
Visibility 10 miles    
Events Snow    
T = Trace of Precipitation, MM = Missing Value Source: NWS Daily Summary

Daily Weather History Graph

Daily Weather History Graph

Search for Another Location

Airport or City:

Trip Planner

Search our weather history database for the weather conditions in past years. The results will help you decide how hot, cold, wet, or windy it might be!

Date:

Astronomy

Jan. 15, 2013 Rise Set
Actual Time 10:40 AM AKST 5:14 PM AKST
Civil Twilight 9:45 AM AKST 6:08 PM AKST
Nautical Twilight 8:50 AM AKST 7:04 PM AKST
Astronomical Twilight 7:58 AM AKST 7:55 PM AKST
Moon 11:19 AM AKST (1/15) 11:58 PM AKST (1/15)
Length of Visible Light 8h 23m
Length of Day
6h 34m
Waxing Crescent, 20% of the Moon is Illuminated
Jan 15
Waxing Crescent
Jan 18
First Quarter
Jan 26
Full
Feb 3
Last Quarter
Feb 9
New

Hourly Weather History & Observations

Time (AKST) Temp. Windchill Dew Point Humidity Pressure Visibility Wind Dir Wind Speed Gust Speed Precip Events Conditions
12:53 AM 17.1 °F 11.7 °F 12.9 °F 84% 30.04 in 10.0 mi South 3.5 mph - N/A   Overcast
1:53 AM 18.0 °F 9.8 °F 14.0 °F 84% 30.05 in 10.0 mi SE 5.8 mph - 0.00 in   Overcast
2:24 AM 17.6 °F - 14.0 °F 86% 30.04 in 10.0 mi Calm Calm - N/A   Overcast
2:53 AM 19.9 °F 9.3 °F 15.1 °F 81% 30.05 in 10.0 mi SE 9.2 mph - N/A   Overcast
3:15 AM 21.2 °F 10.1 °F 15.8 °F 80% 30.04 in 8.0 mi SE 10.4 mph - 0.00 in   Overcast
3:53 AM 21.0 °F 10.6 °F 19.0 °F 92% 30.04 in 9.0 mi SE 9.2 mph - 0.00 in   Overcast
4:15 AM 21.2 °F 9.5 °F 19.4 °F 93% 30.03 in 10.0 mi SSE 11.5 mph - 0.00 in   Mostly Cloudy
4:53 AM 25.0 °F 11.3 °F 23.0 °F 92% 30.06 in 10.0 mi South 18.4 mph - 0.00 in   Overcast
5:53 AM 25.0 °F 12.2 °F 21.9 °F 88% 30.07 in 9.0 mi SSW 16.1 mph - 0.00 in Snow Light Snow
6:53 AM 24.1 °F 11.0 °F 21.9 °F 91% 30.09 in 9.0 mi SSW 16.1 mph - 0.00 in Snow Light Snow
7:53 AM 21.9 °F 10.4 °F 19.0 °F 89% 30.10 in 10.0 mi SSW 11.5 mph - 0.00 in   Scattered Clouds
8:53 AM 18.0 °F 6.1 °F 17.1 °F 96% 30.12 in 10.0 mi SSW 10.4 mph - N/A   Scattered Clouds
9:53 AM 17.1 °F 4.3 °F 15.1 °F 92% 30.14 in 10.0 mi SSW 11.5 mph - N/A   Scattered Clouds
10:53 AM 17.1 °F 5.8 °F 15.1 °F 92% 30.16 in 10.0 mi SW 9.2 mph - N/A   Mostly Cloudy
11:57 AM 17.6 °F 5.0 °F 15.8 °F 93% 30.17 in 10.0 mi WNW 11.5 mph - N/A   Overcast
12:53 PM 15.1 °F 1.1 °F 12.0 °F 88% 30.21 in 8.0 mi NW 12.7 mph - 0.00 in   Overcast
1:09 PM 15.8 °F 2.7 °F 10.4 °F 79% 30.20 in 9.0 mi NNW 11.5 mph - N/A   Mostly Cloudy
1:53 PM 12.9 °F 0.7 °F 8.1 °F 81% 30.23 in 10.0 mi NW 9.2 mph - N/A   Mostly Cloudy
2:53 PM 10.0 °F -2.9 °F 6.1 °F 84% 30.24 in 10.0 mi NNW 9.2 mph - N/A   Scattered Clouds
3:52 PM 8.1 °F -2.0 °F 3.9 °F 83% 30.26 in 10.0 mi NW 5.8 mph - N/A   Scattered Clouds
4:53 PM 5.0 °F -10.0 °F 1.9 °F 87% 30.27 in 10.0 mi NNW 10.4 mph - N/A   Scattered Clouds
5:53 PM 3.0 °F -8.0 °F -0.9 °F 84% 30.30 in 10.0 mi NNW 5.8 mph - N/A   Mostly Cloudy
6:53 PM 5.0 °F -6.9 °F -2.0 °F 73% 30.30 in 10.0 mi North 6.9 mph - N/A   Mostly Cloudy
7:53 PM 5.0 °F -6.9 °F -2.9 °F 70% 30.30 in 10.0 mi NNE 6.9 mph - N/A   Overcast
8:53 PM 5.0 °F -4.1 °F -2.0 °F 73% 30.31 in 10.0 mi NE 4.6 mph - N/A   Overcast
9:53 PM 3.0 °F -8.0 °F -2.0 °F 80% 30.30 in 10.0 mi ESE 5.8 mph - N/A   Mostly Cloudy
10:53 PM 5.0 °F -10.8 °F -0.9 °F 76% 30.31 in 10.0 mi NNW 11.5 mph - N/A   Overcast
11:53 PM 6.1 °F -5.6 °F -0.0 °F 76% 30.31 in 10.0 mi NNE 6.9 mph - N/A   Overcast